ARIANE 44LP DEB, 33541

Orbit data source: Space-Track

ARIANE 44LP DEB, 33541 is space debris in HEO originally from a launch on Sun, 11 Dec 1988 UTC launched from the French Guiana (FRGUI). Debris objects in space refer to the collection of defunct objects orbiting the Earth. Examples of debris include non-operational satellites, rocket bodies, and fragments generated from explosions, collisions, or faulty payload assembly.

Loading next visibility...
Identifier
33541, 1988-109Q
Orbit
HEO
Country
Flag of FRFR
Related business
Manufacturer
Unknown
Mission
Spacecraft
Bus & Motor
Unknown
Mass
Unknown
Launch date (UTC)
1988-12-11 (37 years ago)
Launch vehicle
Unknown
Launch site
French Guiana (FRGUI)
Object type
Payload
Rocket body
Debris
Shape & HBR
Unknown
Radar Cross Section
Medium (>0.1 m² and <1 m²)

Expand to show TLE details & history
Last TLE update: 9 hours ago

TLE from 9 hours ago
0 ARIANE 44LP DEB
1 33541U 88109Q   25251.22661647 -.00000200  00000-0 -13581-2 0  9995
2 33541   7.1944  19.3710 7101469 139.6611 314.8779  2.23961154186006
Epoch: 2025-09-08T05:26Z
TLE epoch observation values (Epoch: 2025-09-08T05:26:19.663Z)
Latitude
0.88863°
Longitude
-42.46567°
Altitude
17,022.575 km
Speed
4.232 km/s
True Right ascension
01h 46m 36s
True Declination
0° 53' 13"
Sunlit
Object was in daylight at epoch
Visualization orbit readout
Latitude
Unknown
Longitude
Unknown
Altitude
Unknown
Speed
Unknown
Apparent Right ascension
Unknown
Apparent Declination
Unknown
Sunlit
N/A
Visualization observer readout
Local Sidereal Time
06:58:36
Azimuth
Unknown
Elevation
Unknown
Doppler factor
Unknown
Orbital elements
Apogee altitude
35,831.176 km
Perigee altitude
775.927 km
Semi-major axis
24,681.688 km
Eccentricity
0.71015
Inclination
7.1944°
RAAN
19.371°
Arg. of periapsis
139.6611°
True anomaly
227.86733°
Mean anomaly
314.8779°
Eccentric anomaly
274.30424°
Mean motion
0.55973 °/min
Orbital period
643.16 mins
BSTAR
-0.0013581
Loading maneuver chart data...
Computing Atmospheric mass density...
Loading historical data...
Loading historical data...
Loading historical data...
Loading historical data...
Loading historical data...
Loading historical data...
Loading historical data...

Documentation

Showing up to 5 results
|